Tiempo cada hora Abazivka

Hoy, 26 Octubre, Lunes

Tiempo Temperatura Precipitaciones Viento Presión Humedad
00:00 +9°C° 0 mm 2 mps 755 mmHg 77%
01:00 +9°C° 0 mm 3 mps 755 mmHg 78%
02:00 +9°C° 0 mm 3 mps 755 mmHg 80%
03:00 +9°C° 0 mm 3 mps 755 mmHg 80%
04:00 +9°C° 0 mm 3 mps 755 mmHg 81%
05:00 +9°C° 0 mm 3 mps 755 mmHg 81%
06:00 +9°C° 0 mm 3 mps 755 mmHg 78%
07:00 +10°C° 0 mm 4 mps 756 mmHg 75%
08:00 +10°C° 0 mm 4 mps 756 mmHg 72%
09:00 +12°C° 0 mm 4 mps 756 mmHg 65%
10:00 +13°C° 0 mm 4 mps 756 mmHg 58%
11:00 +15°C° 0 mm 4 mps 756 mmHg 52%
12:00 +15°C° 0 mm 4 mps 755 mmHg 50%
13:00 +17°C° 0 mm 4 mps 755 mmHg 48%
14:00 +17°C° 0 mm 4 mps 755 mmHg 45%
15:00 +15°C° 0 mm 4 mps 755 mmHg 49%
16:00 +14°C° 0 mm 4 mps 755 mmHg 52%
17:00 +13°C° 0 mm 4 mps 755 mmHg 55%
18:00 +13°C° 0 mm 4 mps 755 mmHg 55%
19:00 +13°C° 0 mm 4 mps 755 mmHg 55%
20:00 +12°C° 0 mm 4 mps 755 mmHg 55%
21:00 +12°C° 0 mm 4 mps 755 mmHg 57%
22:00 +12°C° 0 mm 4 mps 755 mmHg 59%
23:00 +10°C° 0 mm 5 mps 755 mmHg 61%

Mañana, 27 Octubre, Martes

Tiempo Temperatura Precipitaciones Viento Presión Humedad
00:00 +10°C° 0 mm 5 mps 755 mmHg 62%
01:00 +10°C° 0 mm 5 mps 755 mmHg 63%
02:00 +9°C° 0 mm 5 mps 755 mmHg 63%
03:00 +9°C° 0 mm 5 mps 756 mmHg 64%
04:00 +8°C° 0 mm 5 mps 756 mmHg 64%
05:00 +8°C° 0 mm 5 mps 756 mmHg 65%
06:00 +9°C° 0 mm 5 mps 756 mmHg 63%
07:00 +9°C° 0 mm 5 mps 756 mmHg 62%
08:00 +9°C° 0 mm 5 mps 756 mmHg 60%
09:00 +12°C° 0 mm 5 mps 756 mmHg 56%
10:00 +13°C° 0 mm 5 mps 756 mmHg 52%
11:00 +14°C° 0 mm 6 mps 756 mmHg 48%
12:00 +14°C° 0 mm 6 mps 756 mmHg 46%
13:00 +15°C° 0 mm 6 mps 756 mmHg 45%
14:00 +15°C° 0 mm 6 mps 756 mmHg 44%
15:00 +14°C° 0 mm 5 mps 756 mmHg 47%
16:00 +13°C° 0 mm 5 mps 756 mmHg 50%
17:00 +12°C° 0 mm 4 mps 756 mmHg 53%
18:00 +12°C° 0 mm 5 mps 756 mmHg 54%
19:00 +10°C° 0 mm 5 mps 756 mmHg 56%
20:00 +10°C° 0 mm 5 mps 756 mmHg 57%
21:00 +10°C° 0 mm 5 mps 757 mmHg 59%
22:00 +9°C° 0 mm 5 mps 757 mmHg 60%
23:00 +9°C° 0 mm 5 mps 757 mmHg 62%

Pasado mañana, 28 Octubre, Miércoles

Tiempo Temperatura Precipitaciones Viento Presión Humedad
00:00 +8°C° 0 mm 4 mps 757 mmHg 65%
01:00 +8°C° 0 mm 4 mps 757 mmHg 68%
02:00 +7°C° 0 mm 4 mps 757 mmHg 72%
03:00 +7°C° 0 mm 4 mps 757 mmHg 73%
04:00 +6°C° 0 mm 4 mps 757 mmHg 74%
05:00 +6°C° 0 mm 5 mps 757 mmHg 75%
06:00 +6°C° 0 mm 5 mps 757 mmHg 72%
07:00 +6°C° 0 mm 5 mps 757 mmHg 68%
08:00 +7°C° 0 mm 6 mps 757 mmHg 65%
09:00 +8°C° 0 mm 6 mps 757 mmHg 60%
10:00 +10°C° 0 mm 6 mps 757 mmHg 55%
11:00 +11°C° 0 mm 6 mps 757 mmHg 50%
12:00 +13°C° 0 mm 6 mps 756 mmHg 49%
13:00 +13°C° 0 mm 6 mps 756 mmHg 47%
14:00 +14°C° 0 mm 6 mps 756 mmHg 45%
15:00 +13°C° 0 mm 6 mps 756 mmHg 46%
16:00 +12°C° 0 mm 5 mps 756 mmHg 47%
17:00 +11°C° 0 mm 4 mps 756 mmHg 47%
18:00 +11°C° 0 mm 4 mps 756 mmHg 46%
19:00 +9°C° 0 mm 5 mps 756 mmHg 45%
20:00 +9°C° 0 mm 5 mps 756 mmHg 44%
21:00 +8°C° 0 mm 5 mps 756 mmHg 46%
22:00 +8°C° 0 mm 4 mps 756 mmHg 48%
23:00 +7°C° 0 mm 4 mps 756 mmHg 50%

29 Octubre, Jueves

Tiempo Temperatura Precipitaciones Viento Presión Humedad
00:00 +7°C° 0 mm 5 mps 756 mmHg 50%
01:00 +6°C° 0 mm 5 mps 755 mmHg 51%
02:00 +6°C° 0 mm 5 mps 755 mmHg 52%
03:00 +6°C° 0 mm 5 mps 755 mmHg 54%
04:00 +5°C° 0 mm 5 mps 755 mmHg 55%
05:00 +5°C° 0 mm 4 mps 755 mmHg 57%
06:00 +5°C° 0 mm 5 mps 755 mmHg 57%
07:00 +6°C° 0 mm 5 mps 755 mmHg 57%
08:00 +6°C° 0 mm 5 mps 755 mmHg 58%
09:00 +7°C° 0 mm 5 mps 755 mmHg 56%
10:00 +8°C° 0 mm 4 mps 755 mmHg 55%
11:00 +11°C° 0 mm 4 mps 755 mmHg 53%
12:00 +11°C° 0 mm 4 mps 755 mmHg 53%
13:00 +11°C° 0 mm 4 mps 754 mmHg 53%
14:00 +12°C° 0 mm 4 mps 754 mmHg 53%
15:00 +11°C° 0 mm 3 mps 754 mmHg 56%
16:00 +11°C° 0 mm 3 mps 754 mmHg 59%
17:00 +10°C° 0 mm 2 mps 754 mmHg 61%
18:00 +10°C° 0 mm 2 mps 754 mmHg 63%
19:00 +9°C° 0 mm 2 mps 754 mmHg 65%
20:00 +9°C° 0 mm 2 mps 754 mmHg 67%
21:00 +9°C° 0 mm 2 mps 754 mmHg 68%
22:00 +8°C° 0 mm 2 mps 754 mmHg 70%
23:00 +8°C° 0 mm 2 mps 754 mmHg 72%

30 Octubre, Viernes

Tiempo Temperatura Precipitaciones Viento Presión Humedad
00:00 +8°C° 0 mm 2 mps 754 mmHg 73%
01:00 +9°C° 0 mm 1 mps 754 mmHg 74%
02:00 +9°C° 0 mm 1 mps 754 mmHg 75%
03:00 +9°C° 0 mm 1 mps 754 mmHg 76%
04:00 +9°C° 0 mm 1 mps 754 mmHg 76%
05:00 +9°C° 0 mm 1 mps 754 mmHg 77%
06:00 +9°C° 0 mm 1 mps 754 mmHg 75%
07:00 +10°C° 0 mm 1 mps 754 mmHg 73%
08:00 +9°C° 0 mm 2 mps 755 mmHg 72%
09:00 +11°C° 0 mm 1 mps 755 mmHg 67%
10:00 +12°C° 0 mm 1 mps 755 mmHg 63%
11:00 +13°C° 0 mm 1 mps 755 mmHg 59%
12:00 +14°C° 0.1 mm 1 mps 755 mmHg 58%
13:00 +14°C° 0.1 mm 2 mps 755 mmHg 57%
14:00 +14°C° 0.1 mm 2 mps 755 mmHg 56%
15:00 +14°C° 0 mm 2 mps 755 mmHg 59%
16:00 +13°C° 0 mm 2 mps 755 mmHg 63%
17:00 +12°C° 0 mm 2 mps 755 mmHg 66%
18:00 +10°C° 0 mm 2 mps 755 mmHg 69%
19:00 +9°C° 0 mm 2 mps 755 mmHg 71%
20:00 +9°C° 0 mm 2 mps 755 mmHg 74%
21:00 +8°C° 0 mm 2 mps 756 mmHg 75%
22:00 +8°C° 0 mm 2 mps 756 mmHg 77%
23:00 +7°C° 0 mm 2 mps 756 mmHg 78%

31 Octubre, Sábado

Tiempo Temperatura Precipitaciones Viento Presión Humedad
00:00 +7°C° 0 mm 2 mps 756 mmHg 79%
01:00 +7°C° 0 mm 2 mps 756 mmHg 80%
02:00 +6°C° 0 mm 2 mps 756 mmHg 81%
03:00 +6°C° 0 mm 2 mps 756 mmHg 82%
04:00 +6°C° 0 mm 2 mps 756 mmHg 83%
05:00 +6°C° 0 mm 2 mps 756 mmHg 84%
06:00 +6°C° 0 mm 2 mps 757 mmHg 82%
07:00 +7°C° 0 mm 2 mps 757 mmHg 79%
08:00 +7°C° 0 mm 2 mps 757 mmHg 76%
Mostrar más

Necesitamos Su Consentimiento

Meteoprog y nuestros Proveedores de Servicios pueden almacenar y acceder a sus datos personales como cookies, identificadores de dispositivo u otras tecnologías similares de su dispositivo y procesar dichos datos para personalizar contenido y anuncios, además de ofrecer funciones de redes sociales y analizar el tráfico.

  • Almacenar y/o acceder a información en su dispositivo

    Se puede almacenar o acceder a cookies, identificadores de dispositivo u otra información de su dispositivo para los fines anteriormente indicados.

  • Anuncios y contenido personalizados, medición de anuncios y contenido, percepciones del público, y desarrollo de productos

    Los anuncios y el contenido pueden personalizarse en base a su perfil. Se pueden añadir más datos para personalizar mejor los anuncios y contenidos. Se puede medir el rendimiento de los anuncios y contenidos. Se puede obtener la percepción sobre el público que ha visto los anuncios y contenidos. Dichos datos pueden usarse para desarrollar o mejorar la experiencia del usuario, sistemas y software.

Al hacer clic en ‘Estoy De Acuerdo’ usted permitirá el uso de las cookies, identificadores de dispositivo, balizas web u otras tecnologías similares indicadas. Su configuración puede cambiarse desde el navegador de su dispositivo.

Para ciertos fines, los intereses legítimos pueden ser considerados por encima del consentimiento. Puede leer más sobre ello en nuestra Política de Privacidad y Cookies.